Overview Statistics Trail Chart Weather Telemetry Raw packets
 

This is the latest recevied weather packets stored in our database for station/object I1SXT-13. If no packets are shown the sender has not sent any weather packets the latest 10 day(s).

<< 1 2 3 4 >>
Time Temp. Humidity Pressure Rain* Wind** Luminosity Snow
1788606562 28.33° C 70% 1022.1 hPa 0 mm - - -
1788605968 27.78° C 69% 1023 hPa 0 mm - - -
1788604464 27.78° C 72% 1021.7 hPa 0 mm - - -
1788603263 27.78° C 71% 1022.6 hPa 0 mm - - -
1788602966 27.78° C 71% 1022.1 hPa 0 mm - - -
1788599668 26.67° C 72% 1022.3 hPa 0 mm - - -
1788597266 24.44° C 68% 1021.1 hPa 0 mm - - -
1788596066 23.33° C 67% 1021.4 hPa 0 mm - - -
1788591863 21.11° C 70% 1022.2 hPa 0 mm - - -
1788590966 21.67° C 68% 1021.7 hPa 0 mm - - -
1788590663 21.67° C 67% 1021.3 hPa 0 mm - - -
1788587965 19.44° C 70% 1021.7 hPa 0 mm - - -
1788585580 20.56° C 64% 1021.5 hPa 0 mm - - -
1788585267 20.56° C 62% 1021.6 hPa 0 mm - - -
1788584963 20° C 64% 1021.7 hPa 0 mm - - -
1788584667 20° C 66% 1020.4 hPa 0 mm - - -
1788578664 20° C 67% 1021.5 hPa 0 mm - - -
1788578367 19.44° C 68% 1021 hPa 0 mm - - -
1788575363 20° C 68% 1021.3 hPa 0 mm - - -
1788575065 20.56° C 66% 1021.2 hPa 0 mm - - -
1788574465 20.56° C 62% 1021.8 hPa 0 mm - - -
1788572062 20° C 70% 1021.4 hPa 0 mm - - -
1788571763 20° C 68% 1021.5 hPa 0 mm - - -
1788571463 19.44° C 71% 1021.1 hPa 0 mm - - -
1788569968 17.78° C 82% 1021.9 hPa 0 mm - - -

* Rain since midnight (hover to see other rain measurements)
** Current wind speed in m/s (hover to see current wind gust speed)